BEIJING 1 1 28890U 05043A 26258.32715569 .00000221 00000+0 52104-4 0 9990 2 28890 98.3047 32.1066 0014748 5.0317 355.1031 14.63576797113837 HUANJING 1A (HJ-1A) 1 33320U 08041A 26258.31111763 .00000865 00000+0 10941-3 0 9996 2 33320 97.6781 240.7194 0018115 198.5541 161.5015 14.84160889971776 HUANJING 1B (HJ-1B) 1 33321U 08041B 26258.25448608 .00000845 00000+0 10817-3 0 9991 2 33321 97.6612 243.5594 0034670 247.3472 112.4075 14.83461993971764 YAOGAN-4 1 33446U 08061A 26258.22550975 .00000747 00000+0 97620-4 0 9998 2 33446 97.9326 191.0851 0015210 133.0700 227.1790 14.83342845959010 DEIMOS-1 1 35681U 09041A 26258.19031907 .00000146 00000+0 28543-4 0 9996 2 35681 97.7528 51.5851 0000270 106.4846 253.6394 14.75313275920153 UK-DMC 2 1 35683U 09041C 26258.31508346 .00000308 00000+0 51718-4 0 9998 2 35683 97.8967 31.1475 0001209 68.2587 291.8752 14.76140235919862 DMC3-FM1 1 40715U 15032A 26258.24717416 .00000588 00000+0 73432-4 0 9996 2 40715 97.6315 119.8346 0006904 109.5966 250.5996 14.85818804603289 DMC3-FM2 1 40716U 15032B 26258.26879499 .00000493 00000+0 62481-4 0 9996 2 40716 97.6366 121.4892 0007327 114.0125 246.1859 14.85827950603280 DMC3-FM3 1 40717U 15032C 26258.29280409 -.00000322 00000+0 -31182-4 0 9994 2 40717 97.6415 123.3204 0006475 112.9302 247.2598 14.85811778603295